Location: Glass Lake
(42.6301°N, 73.5309°W)
Time: 03:01:11
(UTC+00:00)

ACS3 Solar Sail - Pass Details

Date: 11 October 2024
Orbit: 961 x 1022 km, 97.5° (Epoch: 03 November)

Event Time Altitude Azimuth Distance (km) Brightness Sun altitude
Exits shadow 23:19:22 16° 94° (E) 2,421 3.2 -12.2°
Maximum altitude 23:22:14 21° 61° (ENE) 2,124 3.1 -12.7°
Drops below altitude 10° 23:26:49 10° 15° (NNE) 2,838 4.1 -13.6°
Sets 23:29:56 0° 1° (N) 3,793 4.9 -14.1°
